Regional Weather Roundup
Issued by NWS Columbia, SC

Home | Current Version | Previous Version | Text Only | Print | Product List | Glossary On
Versions: 1 2 3 4 5 6 7 8 9 10 11 12 13 14 15 16 17 18 19 20 21 22 23 24 25 26 27 28 29 30 31 32 33 34 35 36 37 38 39 40 41 42 43 44 45 46 47 48 49 50
670
ASUS42 KCAE 170410
RWRCAE
REGIONAL WEATHER ROUNDUP
NATIONAL WEATHER SERVICE COLUMBIA SC
1100 PM EST MON JAN 16 2017

NOTE: "FAIR" INDICATES FEW OR NO CLOUDS BELOW 12,000 FEET WITH NO
SIGNIFICANT WEATHER AND/OR OBSTRUCTIONS TO VISIBILITY.

NOT ALL STATIONS ARE QUALITY CONTROLLED BY THE NATIONAL
WEATHER SERVICE. USE DATA WITH CAUTION...ESPECIALLY
DEWPOINT OBSERVATIONS.

SCZ001>056-GAZ040-063>065-077-170500-
...UPSTATE SOUTH CAROLINA...

CITY           SKY/WX    TMP DP  RH WIND       PRES   REMARKS
ANDERSON       FOG       53  52  96 E5        30.30F VSB 1
LIBERTY        CLOUDY    54  51  88 CALM      30.30S
SPARTANBURG    CLOUDY    52  48  87 CALM      30.31S
CLEMSON        CLOUDY    56  51  84 CALM      30.31S
GREENVILLE     CLOUDY    55  50  83 E3        30.30F
GREENWOOD      CLOUDY    53  52  96 SE5       30.32S FOG
GREER          CLOUDY    53  50  89 SE3       30.30S
ROCK HILL      CLOUDY    50  48  93 CALM      30.32S FOG
CHESTER        FOG       50  50 100 CALM      30.33R VSB 1/4
LAURENS        FOG       52  52 100 E3        30.31S VSB 1/2


...CENTRAL SOUTH CAROLINA...

CITY           SKY/WX    TMP DP  RH WIND       PRES   REMARKS
COLUMBIA APT   FOG       54  53  97 E6        30.30F VSB 1/4
COLUMBIA OWENS FOG       54  52  93 CALM      30.31F VSB 1/2
MCENTIRE ANGB  FOG       52  52 100 E5        30.30F VSB 1/4
ORANGEBURG     FOG       56  55  97 CALM      30.31S VSB 1/2
SUMTER SHAW    FOG       52  51  97 E3        30.29F VSB 1/2
NEWBERRY       FOG       52  52 100 CALM      30.34S VSB 1
AIKEN          CLOUDY    54  54 100 SE7       30.33S FOG
BARNWELL       FOG       59  59 100 CALM      30.31S VSB 1/4
MANNING        FOG       54  52  94 CALM      30.31F VSB 3/4
CAMDEN         FOG       50  50 100 CALM      30.32F VSB 1/4
LANCASTER      FOG       48  48 100 CALM      30.32F VSB 1/4
WINNSBORO      FOG       50  50 100 CALM      30.31S VSB 1/4


...EASTERN AND COASTAL SOUTH CAROLINA...

CITY           SKY/WX    TMP DP  RH WIND       PRES   REMARKS
MYRTLE BEACH   CLOUDY    55  50  82 E6        30.33F
N MYRTLE BCH   CLOUDY    53  51  93 NE5       30.31F
CONWAY         MOCLDY    50  48  93 CALM      30.32F
MARION         FAIR      50  46  87 NE3       30.31F
HARTSVILLE     CLOUDY    50  48  93 CALM      30.32S
FLORENCE       CLOUDY    53  51  93 E3        30.32F
DARLINGTON     CLOUDY    51  49  92 N5        30.32F FOG
CHARLESTON APT MOCLDY    56  52  86 E3        30.30F
MOUNT PLEASANT LGT RAIN  55  54  94 CALM      30.31S
WALTERBORO     CLOUDY    61 N/A N/A E5        30.32S
BEAUFORT       CLOUDY    59  57  93 CALM      30.31R


...EASTERN GEORGIA...

CITY           SKY/WX    TMP DP  RH WIND       PRES   REMARKS
AUGUSTA BUSH F CLOUDY    59  56  89 SE3       30.29S
AUGUSTA DANIEL CLOUDY    58  54  86 E5        30.30R
THOMSON        MOCLDY    59  59 100 SE3       30.33S
WASHINGTON     CLOUDY    61  61 100 SE5       30.29S FOG
CLAXTON        CLOUDY   N/A N/A N/A E3        30.29F
SYLVANIA       CLOUDY   N/A N/A N/A CALM      30.30S FOG
STATESBORO     CLOUDY    62  62 100 SE5       30.30S FOG
SAVANNAH       FOG       58  56  93 E8        30.30F VSB 1


...SOUTHERN NORTH CAROLINA...

CITY           SKY/WX    TMP DP  RH WIND       PRES   REMARKS
CHARLOTTE      CLOUDY    50  46  86 SE3       30.32S
MONROE         CLOUDY    49  46  90 CALM      30.31F FOG
ROCKINGHAM     CLOUDY    50  47  90 CALM      30.33S
RUTHERFORDTON  CLOUDY    51  51 100 CALM      30.31F FOG
ASHEVILLE      LGT RAIN  50  47  89 S7        30.30S FOG

$$




USA.gov is the U.S. government's official web portal to all federal, state and local government web resources and services.